Regional Weather Roundup
Issued by NWS Sterling, VA

Home | Current Version | Previous Version | Text Only | Print | Product List | Glossary On
Versions: 1 2 3 4 5 6 7 8 9 10 11 12 13 14 15 16 17 18 19 20 21 22 23 24 25 26 27 28 29 30 31 32 33 34 35 36 37 38 39 40 41 42 43 44 45 46 47 48 49 50
000
ASUS41 KLWX 300710
RWRLWX

REGIONAL WEATHER ROUNDUP
NATIONAL WEATHER SERVICE BALTIMORE MD/WASHINGTON DC
300 AM EDT SUN AUG 30 2015

Note: "FAIR" indicates few or no clouds below 12,000 feet
with no significant weather and/or obstructions to visibility.
 TC=TEMPERATURE CELSIUS

 * =Non NWS site. Station does not report precipitation (e.g. rain,
    snow, etc.), thunder, or fog.

DCZ001-MDZ009-015-VAZ040>042-051-053>054-300800-
WASHINGTON METRO

CITY           SKY/WX    TMP DP  RH WIND       PRES   REMARKS
WASHINGTON NAT MOCLDY    71  64  78 S9        30.10F
DULLES         CLEAR     68  64  87 S6        30.10F
ANDREWS AFB    CLEAR     69  64  84 S7        30.10S
FT BELVOIR     CLEAR     69  63  81 SE2       30.10S
QUANTICO       PTCLDY    72  61  68 W6        30.11F
COLLEGE PARK*  CLEAR     72  63  73 CALM      30.10S
LEESBURG*      CLEAR     70  68  94 S5        30.10F
MANASSAS*      CLEAR     68  66  94 CALM      30.10S
GAITHERSBURG*  CLEAR     68  63  83 CALM      30.14S

$$

MDZ006>007-011-014-300800-
BALTIMORE METRO

CITY           SKY/WX    TMP DP  RH WIND       PRES   REMARKS
BWI AIRPORT    PTCLDY    68  63  84 S3        30.10S
MD SCIENCE CTR   N/A     72  63  73 MISG      30.10F
MARTIN STATE   CLEAR     72  68  88 S8        30.11S
ANNAPOLIS      CLEAR     71  63  75 VRB5      30.09F
FORT MEADE*    CLEAR     61  61 100 CALM      30.12F

$$

MDZ012-015-019>023-300800-
MARYLAND EASTERN SHORE

CITY           SKY/WX    TMP DP  RH WIND       PRES   REMARKS
OCEAN CITY     PTCLDY    65  62  90 CALM      30.11F
SALISBURY      PTCLDY    63  61  93 CALM      30.10F
BAY BRIDGE AP*   N/A     72  64  78 S3        30.10S
CAMBRIDGE*     CLEAR     66  63  88 CALM      30.10F

$$

MDZ017>025-300800-
SOUTHERN MARYLAND

CITY           SKY/WX    TMP DP  RH WIND       PRES   REMARKS
PATUXENT RIVER CLEAR     67  62  84 CALM      30.10F
ST INIGOES     CLEAR     72  65  78 S7        30.10F
LEONARDTOWN*   CLEAR     68  63  83 CALM      30.13S

$$

MDZ003>005-300800-
NORTH CENTRAL MARYLAND

CITY           SKY/WX    TMP DP  RH WIND       PRES   REMARKS
FREDERICK*     CLEAR     66  66 100 CALM      30.12S
HAGERSTOWN APT CLEAR     71  63  75 CALM      30.09F
WESTMINSTER*   CLEAR     70  64  83 S3        30.11S

$$

MDZ501>502-300800-
WESTERN MARYLAND

CITY           SKY/WX    TMP DP  RH WIND       PRES   REMARKS
OAKLAND*       CLEAR     63  55  77 SW6       30.20S
CUMBERLAND*    CLEAR     64  63  94 CALM      30.14S

$$

VAZ025>031-300800-
SHENANDOAH VALLEY

CITY           SKY/WX    TMP DP  RH WIND       PRES   REMARKS
WINCHESTER*    CLEAR     66  63  88 S5        30.10S
FRONT ROYAL*   FAIR      64  63  94 S5        30.09F
LURAY*         FAIR      63  63 100 CALM      30.12S
NEW MARKET*    FAIR      62  60  93 SW3       30.12S
STAUNTON*      CLEAR     65  61  85 CALM      30.16S
WAYNESBORO*    FAIR      68  60  75 CALM      30.15S

$$

WVZ021-048>050-054>055-300800-
EASTERN WEST VIRGINIA PANHANDLE

CITY           SKY/WX    TMP DP  RH WIND       PRES   REMARKS
MARTINSBURG    CLEAR     63  62  97 S3        30.09F FOG
PETERSBURG*    CLEAR     60  59  97 CALM      30.14S FOG

$$

VAZ036>039-050-300800-
CENTRAL FOOTHILLS

CITY           SKY/WX    TMP DP  RH WIND       PRES   REMARKS
CHARLOTTESVILL CLEAR     67  64  90 CALM      30.11F
CULPEPER*      CLEAR     64  63  96 CALM      30.12S
ORANGE*        CLEAR     66  64  94 CALM      30.13S
GORDONSVILLE*  FAIR      64  63  98 CALM      30.11S
WARRENTON*     FAIR      69  65  89 S5        30.10F

$$

VAZ055>057-300800-
NORTH AND CENTRAL PIEDMONT

CITY           SKY/WX    TMP DP  RH WIND       PRES   REMARKS
FREDERICKSBRG* CLEAR     71  64  77 S3        30.10F
STAFFORD*      PTCLDY    66  61  84 CALM      30.15S

$$

NCZ024-NYZ072-PAZ021-071-VAZ022-071-300800-
OTHER REGIONAL OBSERVATIONS

CITY           SKY/WX    TMP DP  RH WIND       PRES   REMARKS
NEW YORK CITY  PTCLDY    74  59  59 W5        30.12F
PHILADELPHIA   MOCLDY    72  62  71 SW7       30.11F
PITTSBURGH     MOCLDY    71  62  73 S5        30.09S
ROANOKE        CLOUDY    67  61  81 CALM      30.17S
RICHMOND       PTCLDY    68  62  81 SW3       30.12F
RALEIGH        MOCLDY    67  61  81 CALM      30.14F

$$

ANZ530>537-300800-
MARINE OBSERVATIONS

STATION/POSITION TIME  TEMP    WIND        PRES
                       AIR SEA DIR/SP/G
                 (UTC) (F)     (DEG/KT/KT) (MB)
THOMAS PT LIGHT  0700   74 78  200/ 15/ 17 1019.6F

$$



USA.gov is the U.S. government's official web portal to all federal, state and local government web resources and services.